CAPE
0 0 0 0 0 0 0 20 11 18 238 3 69 96 52 40 630 225 447 899 1044 844 1122 1613 1496 1459 1856 2787 3076 2992 2884 3107
0 0 0 0 0 0 0 0 19 24 207 42 22 52 18 281 65 439 840 953 1178 1198 1206 1413 1817 1792 1793 2789 3005 3086 2653 3137
1 0 0 0 0 0 0 0 0 103 102 334 207 94 11 379 145 179 729 1097 1593 1591 1632 1577 1768 2107 2107 2726 2937 3214 2743 2881
0 0 0 0 0 0 1 0 0 113 40 68 43 54 53 967 157 0 235 1517 1817 2010 2063 1998 1964 1965 2299 2656 2971 3045 2903 2932
0 0 2 0 0 0 0 3 203 147 124 43 23 16 431 614 270 19 1608 1833 1881 2008 2728 2348 2267 2284 1897 2615 2562 2616 3011 3270
1 9 25 1 0 0 4 50 40 30 125 117 31 69 637 373 26 212 2133 2417 2346 2340 2655 3015 3452 3789 3527 2831 2468 3324 3124 3538
0 0 2 1 9 12 0 2 101 81 127 80 19 204 472 913 927 1436 1955 2037 2728 3096 3453 3766 3891 3654 3546 3380 3484 3708 3618 3315
0 0 2 6 0 4 7 0 0 83 37 37 22 135 317 1221 1190 1751 1840 2054 2821 3491 3495 3493 3587 3824 3601 3626 3775 3610 3621 3059
22 0 7 10 14 49 53 0 6 101 122 31 54 101 165 1048 540 932 1619 1862 2505 2960 3256 3439 3434 3471 3539 3560 3674 3485 2816 2846
292 209 128 7 51 23 110 60 51 28 240 0 90 2 152 765 57 0 238 2250 2589 2123 2720 2575 2512 2554 2813 2867 3028 2833 2190 1909
223 301 112 105 48 67 226 47 115 28 22 30 217 325 1077 1115 13 0 515 2221 2522 2448 2828 2329 2426 1640 2077 2330 2227 1919 1904 1168
166 429 265 221 267 91 2 291 185 0 0 12 326 216 442 928 926 1050 1112 2097 2203 1860 1915 1553 1496 1075 1124 1734 1657 799 720 519
252 191 343 371 51 19 203 398 162 4 14 307 996 999 1167 733 874 727 1366 1383 1169 1589 1598 1655 862 778 969 1208 576 389 146 3
562 353 211 111 9 36 190 257 548 357 506 1783 1630 1304 1037 819 842 847 970 927 605 1010 1130 450 611 406 663 320 342 201 8 4
390 376 150 65 5 0 0 688 383 540 395 1806 1476 959 745 776 632 563 640 841 329 674 512 150 57 353 639 410 510 81 8 2
204 596 494 261 239 240 50 593 606 329 83 102 286 566 410 452 534 494 454 546 297 317 135 31 18 67 562 331 289 158 50 5
164 767 448 390 488 611 362 481 537 779 222 179 187 406 301 388 778 714 341 165 78 53 32 4 49 280 493 563 388 146 55 2
281 171 613 908 360 434 429 739 982 873 388 351 239 484 393 956 716 495 273 200 146 78 20 20 189 493 447 580 434 154 26 2
38 32 4 358 681 742 992 977 840 719 776 494 412 657 779 796 605 251 124 123 96 65 71 60 280 478 692 656 286 414 33 10
CIN
0 0 0 0 0 0 0 -7 -29 -19 -47 -8 -4 -13 -24 -61 -137 -334 -193 -21 -7 -18 -12 -18 -23 -33 -26 -39 -31 -12 -7 -1
0 0 0 0 0 0 0 0 -2 -83 -27 -97 -38 -27 -25 -176 -413 -106 -4 -3 -5 -5 -15 -16 -9 -16 -19 -33 -41 -29 -28 -4
0 0 0 0 0 0 0 0 0 -67 -34 -41 -8 -6 -9 -132 -301 -247 -8 -2 -10 -8 -26 -31 -19 -4 -13 -20 -33 -16 -18 -8
0 -1 0 0 0 0 0 0 0 -9 -3 -2 -36 -35 -7 -120 -341 0 -333 -3 -11 -3 -22 -30 -24 -1 -4 -4 -8 -15 -17 -14
0 0 0 0 0 0 0 0 -5 -2 -7 -148 -33 -58 -39 -311 -362 -123 -21 -3 -2 -3 -6 -30 -17 -8 -24 -8 -13 -10 -13 -11
0 -1 -10 -3 0 0 -1 -1 -1 -5 -19 -140 -198 -9 -112 -410 -203 -349 -3 -4 -2 -2 -3 -4 -8 -6 -3 -18 -29 -9 -9 -7
-1 -2 -6 -1 -2 -1 0 -1 -1 -3 -14 -62 -48 -4 -3 -104 -170 -49 -17 0 -2 -3 -3 -6 -9 -7 -6 -1 -2 -3 -4 -17
0 0 -3 -3 0 -35 -1 0 -2 -16 -22 -19 -74 -121 -2 -10 -7 -1 -11 -1 -1 -2 0 -1 -1 -1 0 0 -1 -1 -1 -7
-1 0 -4 0 -28 -24 -6 0 -5 0 -17 -43 -109 -146 -51 -50 -224 -34 -2 -1 -1 0 0 -1 0 -1 0 -1 -1 0 -5 -7
-1 -1 -1 -23 -16 -46 -20 -4 -10 -10 -18 0 -90 -84 -76 -179 -596 0 -311 -6 -4 -2 -1 -2 -7 -4 -1 0 0 0 -8 -13
-1 0 -4 -6 -38 -89 -3 -79 -4 -2 -12 -9 -6 -5 -13 -30 -418 0 -153 -9 -6 -3 -3 -3 -4 -52 -1 0 0 0 -1 -28
0 -1 -3 -12 -76 -18 -106 -3 -19 0 0 -72 -37 -20 -3 -22 -26 -30 -38 -9 -5 -1 -18 -14 -40 -61 -41 0 -1 -28 -28 -41
0 -15 -2 -34 -212 -85 -58 -1 -17 -1 -35 -21 -22 -24 -34 -41 -41 -40 -11 -36 -28 -3 -1 -1 -37 -50 -10 -5 -17 -41 -59 -4
0 -1 -1 -293 -168 -71 -38 -20 -16 -9 -11 -43 -33 -34 -33 -33 -37 -24 -30 -54 -42 -4 -6 -67 -38 -62 -3 -28 -10 -12 -3 0
0 -1 -323 -471 -30 0 -14 -10 -35 -28 -27 -21 -22 -30 -31 -31 -29 -21 -10 -6 -51 -30 -56 -122 -131 -5 -1 -7 -3 -20 0 0
-182 -3 -74 -133 -313 -59 -154 -13 -33 -44 -60 -40 -25 -22 -24 -9 -3 -6 -26 -16 -51 -54 -106 -188 -149 -107 -3 -22 -31 -55 -29 0
-74 -26 -75 -54 -90 -120 -195 -13 -11 -27 -42 -51 -36 -20 -32 -14 -6 -14 -47 -83 -131 -145 -156 -31 -106 -12 -3 -1 -7 -9 -27 0
-18 -118 -119 -76 -251 -413 -267 -10 -21 -28 -37 -42 -47 -26 -33 -9 -21 -28 -47 -64 -89 -117 -168 -22 -10 0 -8 -1 -2 -7 -47 0
-9 -166 -90 -13 -15 -31 0 -21 -32 -37 -53 -59 -55 -46 -16 -16 -29 -87 -99 -82 -80 -93 -88 -73 -8 0 0 0 -2 -3 -32 0
Wind_Speed
18 16 19 17 16 19 22 8 4 5 10 23 9 12 12 14 22 25 32 23 22 19 18 15 17 16 16 19 17 16 15 13
16 14 18 19 15 12 13 19 13 6 13 12 15 14 15 14 13 20 19 13 17 16 19 15 14 14 15 18 18 16 15 14
14 11 17 13 17 18 16 13 16 7 10 18 19 15 14 22 21 8 16 13 14 12 16 15 12 13 13 16 16 14 14 13
20 15 17 18 17 18 13 14 12 11 2 12 14 17 15 22 21 15 25 11 13 10 17 16 14 13 14 12 15 14 12 10
17 17 17 16 20 18 18 18 12 11 3 11 3 8 3 20 27 22 12 10 12 11 9 15 14 11 13 13 12 13 12 12
14 16 3 16 20 22 18 14 13 12 4 11 9 12 20 21 20 19 13 10 10 11 8 7 9 8 6 10 9 10 12 11
20 23 7 21 12 15 21 21 17 10 4 7 5 15 11 27 28 26 15 13 12 12 10 8 8 6 4 3 4 5 6 6
22 24 20 13 16 28 22 24 22 14 8 1 6 12 11 16 13 16 13 13 12 13 11 10 9 7 6 4 5 2 4 2
20 21 22 21 14 20 20 23 21 12 11 4 8 11 18 18 15 7 13 15 13 11 10 10 9 8 7 6 5 4 2 3
15 18 25 13 23 15 33 9 11 10 12 18 7 5 28 15 19 14 24 15 14 10 9 7 7 7 8 6 5 4 4 5
14 16 18 10 8 11 26 14 14 9 3 7 14 11 10 14 21 24 24 18 12 11 11 7 7 5 4 7 6 4 7 8
12 18 23 8 15 14 27 11 8 5 4 8 10 6 5 13 10 10 10 13 10 12 12 9 8 6 5 6 6 9 7 7
16 16 14 10 16 22 5 7 15 13 9 11 10 9 11 11 12 11 13 11 8 10 9 9 6 7 4 7 9 8 8 9
14 17 21 8 13 8 14 9 11 12 9 20 16 14 10 11 10 12 12 10 8 8 10 7 8 6 5 9 8 7 9 8
12 11 11 6 5 19 27 7 8 12 12 18 15 12 11 9 8 7 8 10 6 11 11 8 7 2 8 8 8 10 9 8
16 17 20 20 21 27 14 11 10 14 10 10 9 10 10 8 9 7 6 6 6 10 9 9 5 3 7 8 11 9 9 9
14 21 17 11 10 9 14 13 11 14 10 9 7 9 5 7 7 8 7 5 5 7 8 8 6 6 9 11 10 8 9 9
6 22 21 15 9 10 27 12 9 11 11 9 6 9 6 10 7 7 7 5 6 6 8 8 9 8 7 10 8 7 9 8
11 17 25 10 11 31 11 11 11 12 12 10 9 10 11 10 8 10 9 5 6 7 6 7 6 10 9 9 8 4 9 7
Wind_Direction
202 203 239 226 216 249 256 181 176 262 333 337 212 165 195 206 105 167 231 184 179 178 164 162 158 163 164 166 175 186 196 193
186 202 218 246 255 224 242 266 262 165 232 205 252 223 208 78 29 246 168 179 162 163 159 157 160 165 169 167 176 186 194 195
255 188 225 211 242 258 269 238 247 157 247 211 229 218 215 152 167 287 130 146 143 156 148 159 167 167 173 166 175 183 198 196
260 257 208 249 221 235 243 253 269 285 278 133 178 220 214 104 78 31 292 139 137 153 150 154 163 187 171 176 174 184 191 204
262 249 209 216 244 234 245 256 250 274 175 37 236 129 185 91 112 219 186 140 139 148 143 151 163 183 171 182 182 186 193 194
249 247 298 217 218 242 255 247 243 239 211 93 341 268 135 122 130 251 133 137 138 146 142 128 139 147 149 171 189 182 191 190
277 277 230 270 250 263 244 259 267 240 156 168 291 233 166 150 162 185 144 154 147 137 131 119 112 120 146 173 170 176 189 191
269 281 282 233 243 262 219 239 256 192 254 207 359 336 211 150 139 144 150 147 139 126 136 138 139 142 154 166 149 213 170 178
248 255 261 258 243 257 262 220 234 231 188 133 72 340 294 145 149 231 164 139 130 133 143 137 141 139 137 133 97 116 82 44
273 261 248 257 246 204 291 238 259 231 131 114 159 273 268 96 107 57 277 127 121 131 114 118 130 156 140 143 142 131 106 70
263 259 262 246 257 273 294 193 262 226 149 107 146 154 76 68 149 173 243 125 122 122 119 138 109 94 132 128 116 135 79 56
246 263 248 263 292 276 346 248 247 267 226 142 136 187 176 129 120 104 94 90 118 130 124 149 120 149 166 150 121 79 72 54
224 249 261 21 3 27 303 225 212 201 140 129 89 90 75 97 95 108 102 116 135 126 138 129 150 132 176 96 87 75 69 60
220 234 237 53 49 138 259 38 62 101 106 96 104 107 114 109 118 121 127 120 149 146 119 97 86 115 102 101 112 100 89 78
216 205 129 174 110 254 281 127 95 95 86 123 129 133 133 133 141 129 145 151 188 103 121 125 127 192 138 147 112 100 96 78
354 184 143 166 170 243 266 117 121 114 121 122 129 136 157 146 155 154 130 115 105 126 137 137 137 209 170 140 114 120 110 95
289 282 118 152 153 274 310 131 114 106 114 109 132 135 150 126 95 108 129 149 143 157 155 141 180 185 173 141 138 136 112 105
278 315 315 166 136 349 286 113 116 124 119 112 115 117 120 112 132 132 138 124 155 159 158 169 182 174 185 146 143 147 123 109
254 316 305 214 155 174 184 143 139 128 124 133 125 124 124 123 133 120 133 162 164 155 159 162 196 173 162 148 154 160 108 114